Station Historical Data
Daily Summary for February 24, 2013 Units:  English    Metric   Both
« Previous Day
Next Day »
Daily Weekly Monthly Yearly Custom
  High: Low: Average:
Temperature: 55.9 °F 31.6 °F 42.8 °F
Dew Point: 33.1 °F 26.7 °F 29.4 °F
Humidity: 85% 33% 62%
Wind Speed: 11.0mph 0.0mph 3.7mph
Wind Gust: 12.0mph - -
Wind- - East
Pressure: 30.11 in 29.96 in -
Precipitation: 0.00 in    
Historical Graphs
 
 
Tabular Data for February 24, 2013
Time Temperature Dew Point Pressure Wind Wind Speed Wind Gust Humidity Rainfall Rate (Hourly) Conditions
00:00 37.7 °F 30.8 °F 29.98 in NW 2.0 mph 3.0 mph 76% 0.00 in
00:05 37.7 °F 31.1 °F 29.98 in Calm   1.0 mph 77% 0.00 in
00:10 37.9 °F 31.0 °F 29.98 in NW 1.0 mph 1.0 mph 76% 0.00 in
00:15 38.1 °F 30.9 °F 29.98 in NNW 1.0 mph 1.0 mph 75% 0.00 in
00:20 38.1 °F 30.9 °F 29.98 in NNW 1.0 mph 1.0 mph 75% 0.00 in
00:25 38.0 °F 30.8 °F 29.98 in Calm   1.0 mph 75% 0.00 in
00:30 37.7 °F 30.8 °F 29.98 in Calm   1.0 mph 76% 0.00 in
00:35 37.6 °F 30.7 °F 29.98 in NNW 1.0 mph 2.0 mph 76% 0.00 in
00:40 37.7 °F 30.8 °F 29.98 in NNW 2.0 mph 2.0 mph 76% 0.00 in
00:45 37.5 °F 30.6 °F 29.98 in NNW 3.0 mph 3.0 mph 76% 0.00 in
00:50 37.2 °F 30.4 °F 29.98 in NNW 2.0 mph 3.0 mph 76% 0.00 in
00:55 36.9 °F 30.4 °F 29.98 in NW 4.0 mph 4.0 mph 77% 0.00 in
01:00 36.7 °F 30.2 °F 29.98 in NW 2.0 mph 5.0 mph 77% 0.00 in
01:05 36.5 °F 30.3 °F 29.98 in NNW 3.0 mph 4.0 mph 78% 0.00 in
01:10 36.5 °F 30.3 °F 29.99 in NNW 4.0 mph 4.0 mph 78% 0.00 in
01:15 36.4 °F 30.2 °F 29.98 in NNW 2.0 mph 4.0 mph 78% 0.00 in
01:20 36.2 °F 30.3 °F 29.98 in NW 2.0 mph 4.0 mph 79% 0.00 in
01:25 36.2 °F 30.3 °F 29.98 in NNW 2.0 mph 4.0 mph 79% 0.00 in
01:30 35.9 °F 30.0 °F 29.99 in NNW 3.0 mph 4.0 mph 79% 0.00 in
01:35 35.9 °F 30.3 °F 29.99 in NNW 3.0 mph 5.0 mph 80% 0.00 in
01:40 36.0 °F 30.1 °F 29.99 in NNW 3.0 mph 4.0 mph 79% 0.00 in
01:45 36.1 °F 30.2 °F 29.99 in NNW 3.0 mph 5.0 mph 79% 0.00 in
01:51 35.9 °F 30.0 °F 29.99 in NNW 2.0 mph 4.0 mph 79% 0.00 in
01:56 35.8 °F 29.9 °F 29.99 in NNW 3.0 mph 4.0 mph 79% 0.00 in
02:01 35.7 °F 29.8 °F 29.99 in NNW 3.0 mph 3.0 mph 79% 0.00 in
02:06 35.7 °F 29.8 °F 29.99 in NNW 5.0 mph 6.0 mph 79% 0.00 in
02:11 35.6 °F 30.0 °F 29.99 in NNW 3.0 mph 5.0 mph 80% 0.00 in
02:16 35.4 °F 29.9 °F 29.99 in NNW 3.0 mph 5.0 mph 80% 0.00 in
02:21 35.4 °F 29.9 °F 29.99 in NNW 1.0 mph 4.0 mph 80% 0.00 in
02:26 35.2 °F 29.7 °F 29.99 in NNW 3.0 mph 5.0 mph 80% 0.00 in
02:31 35.1 °F 29.6 °F 29.99 in North 3.0 mph 5.0 mph 80% 0.00 in
02:36 35.1 °F 29.9 °F 29.99 in North 1.0 mph 4.0 mph 81% 0.00 in
02:41 34.9 °F 29.7 °F 29.99 in North 2.0 mph 5.0 mph 81% 0.00 in
02:46 35.0 °F 29.8 °F 29.98 in North 4.0 mph 7.0 mph 81% 0.00 in
02:51 35.0 °F 29.8 °F 29.98 in NNE 2.0 mph 5.0 mph 81% 0.00 in
02:56 34.9 °F 29.7 °F 29.98 in NNE 1.0 mph 4.0 mph 81% 0.00 in
03:01 34.7 °F 29.5 °F 29.99 in North 2.0 mph 2.0 mph 81% 0.00 in
03:06 34.5 °F 29.6 °F 29.99 in North 2.0 mph 3.0 mph 82% 0.00 in
03:11 34.4 °F 29.5 °F 29.99 in North 2.0 mph 5.0 mph 82% 0.00 in
03:16 34.2 °F 29.3 °F 29.99 in North 2.0 mph 3.0 mph 82% 0.00 in
03:21 34.2 °F 29.3 °F 29.99 in NE 2.0 mph 4.0 mph 82% 0.00 in
03:26 34.1 °F 29.2 °F 29.99 in NNE 1.0 mph 3.0 mph 82% 0.00 in
03:31 34.1 °F 29.2 °F 29.99 in NNE 2.0 mph 3.0 mph 82% 0.00 in
03:36 34.3 °F 29.1 °F 29.99 in North 1.0 mph 4.0 mph 81% 0.00 in
03:41 34.3 °F 29.1 °F 29.99 in NNE 1.0 mph 3.0 mph 81% 0.00 in
03:46 34.1 °F 28.9 °F 29.99 in North 1.0 mph 3.0 mph 81% 0.00 in
03:51 33.9 °F 28.7 °F 29.99 in North 2.0 mph 2.0 mph 81% 0.00 in
03:56 33.7 °F 28.8 °F 29.99 in North 3.0 mph 3.0 mph 82% 0.00 in
04:01 33.7 °F 28.8 °F 29.99 in North 1.0 mph 2.0 mph 82% 0.00 in
04:06 33.6 °F 28.7 °F 29.99 in North 2.0 mph 2.0 mph 82% 0.00 in
04:11 33.6 °F 28.7 °F 30.00 in Calm   3.0 mph 82% 0.00 in
04:16 33.5 °F 28.6 °F 30.00 in North 2.0 mph 2.0 mph 82% 0.00 in
04:21 33.5 °F 28.6 °F 30.00 in North 2.0 mph 3.0 mph 82% 0.00 in
04:26 33.5 °F 28.6 °F 30.00 in NNE 2.0 mph 3.0 mph 82% 0.00 in
04:31 33.4 °F 28.5 °F 30.00 in NNE 2.0 mph 3.0 mph 82% 0.00 in
04:36 33.1 °F 28.5 °F 30.00 in NNE 3.0 mph 3.0 mph 83% 0.00 in
04:41 33.0 °F 28.4 °F 30.00 in NNE 2.0 mph 2.0 mph 83% 0.00 in
04:46 33.0 °F 28.4 °F 30.00 in NNE 2.0 mph 5.0 mph 83% 0.00 in
04:51 33.1 °F 28.5 °F 30.00 in NE 4.0 mph 5.0 mph 83% 0.00 in
04:56 33.1 °F 28.5 °F 30.00 in NNE 3.0 mph 4.0 mph 83% 0.00 in
05:02 32.8 °F 28.2 °F 30.01 in North 2.0 mph 4.0 mph 83% 0.00 in
05:07 32.6 °F 28.3 °F 30.01 in North 1.0 mph 4.0 mph 84% 0.00 in
05:12 32.7 °F 28.4 °F 30.01 in North 3.0 mph 4.0 mph 84% 0.00 in
05:17 32.7 °F 28.4 °F 30.01 in North 2.0 mph 4.0 mph 84% 0.00 in
05:22 32.6 °F 28.3 °F 30.01 in NNE 4.0 mph 4.0 mph 84% 0.00 in
05:27 32.4 °F 28.1 °F 30.01 in NNE 4.0 mph 5.0 mph 84% 0.00 in
05:32 32.4 °F 28.4 °F 30.01 in NNE 3.0 mph 5.0 mph 85% 0.00 in
05:37 32.5 °F 28.2 °F 30.01 in NNE 4.0 mph 6.0 mph 84% 0.00 in
05:42 32.4 °F 28.1 °F 30.01 in NNE 3.0 mph 5.0 mph 84% 0.00 in
05:47 32.4 °F 28.1 °F 30.02 in NNE 2.0 mph 4.0 mph 84% 0.00 in
05:52 32.4 °F 28.1 °F 30.02 in NE 3.0 mph 4.0 mph 84% 0.00 in
05:57 32.4 °F 28.1 °F 30.02 in NNE 1.0 mph 3.0 mph 84% 0.00 in
06:02 32.3 °F 28.0 °F 30.02 in NNE 2.0 mph 3.0 mph 84% 0.00 in
06:07 32.2 °F 27.9 °F 30.02 in NNE 2.0 mph 3.0 mph 84% 0.00 in
06:12 32.0 °F 27.7 °F 30.02 in NE 3.0 mph 3.0 mph 84% 0.00 in
06:17 31.8 °F 27.8 °F 30.02 in NNE 2.0 mph 4.0 mph 85% 0.00 in
06:22 31.8 °F 27.8 °F 30.02 in NE 4.0 mph 5.0 mph 85% 0.00 in
06:27 31.8 °F 27.8 °F 30.03 in NE 4.0 mph 5.0 mph 85% 0.00 in
06:32 31.8 °F 27.8 °F 30.03 in NNE 3.0 mph 5.0 mph 85% 0.00 in
06:37 31.9 °F 27.9 °F 30.04 in NNE 2.0 mph 4.0 mph 85% 0.00 in
06:42 31.9 °F 27.6 °F 30.03 in NNE 2.0 mph 4.0 mph 84% 0.00 in
06:47 31.9 °F 27.6 °F 30.03 in NNE 3.0 mph 4.0 mph 84% 0.00 in
06:52 31.8 °F 27.5 °F 30.04 in NNE 2.0 mph 3.0 mph 84% 0.00 in
06:57 31.8 °F 27.5 °F 30.04 in North 2.0 mph 4.0 mph 84% 0.00 in
07:02 31.8 °F 27.5 °F 30.04 in NNE 1.0 mph 4.0 mph 84% 0.00 in
07:07 31.8 °F 27.5 °F 30.05 in NNE 2.0 mph 3.0 mph 84% 0.00 in
07:12 31.8 °F 27.5 °F 30.05 in North 2.0 mph 3.0 mph 84% 0.00 in
07:17 31.7 °F 27.4 °F 30.05 in North 2.0 mph 4.0 mph 84% 0.00 in
07:22 31.7 °F 27.4 °F 30.04 in NNE 2.0 mph 4.0 mph 84% 0.00 in
07:27 31.6 °F 27.3 °F 30.05 in North 3.0 mph 4.0 mph 84% 0.00 in
07:32 31.6 °F 27.3 °F 30.05 in NNE 1.0 mph 3.0 mph 84% 0.00 in
07:37 31.6 °F 27.3 °F 30.05 in NNE 3.0 mph 4.0 mph 84% 0.00 in
07:42 31.8 °F 27.5 °F 30.05 in NE 2.0 mph 7.0 mph 84% 0.00 in
07:47 32.0 °F 27.4 °F 30.06 in North 2.0 mph 6.0 mph 83% 0.00 in
07:52 32.1 °F 27.5 °F 30.06 in NNE 4.0 mph 5.0 mph 83% 0.00 in
07:57 32.3 °F 27.4 °F 30.06 in NE 4.0 mph 5.0 mph 82% 0.00 in
08:02 32.5 °F 27.6 °F 30.06 in NE 2.0 mph 6.0 mph 82% 0.00 in
08:07 32.9 °F 28.0 °F 30.06 in NE 4.0 mph 8.0 mph 82% 0.00 in
08:12 33.1 °F 27.9 °F 30.06 in North 3.0 mph 7.0 mph 81% 0.00 in
08:17 33.4 °F 28.2 °F 30.07 in North 1.0 mph 8.0 mph 81% 0.00 in
08:22 33.7 °F 28.2 °F 30.07 in NE 5.0 mph 9.0 mph 80% 0.00 in
08:27 33.9 °F 28.4 °F 30.06 in NNE 5.0 mph 7.0 mph 80% 0.00 in
08:32 34.2 °F 28.7 °F 30.06 in NE 5.0 mph 8.0 mph 80% 0.00 in
08:37 34.5 °F 28.4 °F 30.07 in NE 7.0 mph 11.0 mph 78% 0.00 in
08:42 34.8 °F 28.6 °F 30.07 in NNE 7.0 mph 9.0 mph 78% 0.00 in
08:47 35.2 °F 29.0 °F 30.07 in NNE 5.0 mph 8.0 mph 78% 0.00 in
08:52 35.5 °F 28.7 °F 30.07 in NE 8.0 mph 12.0 mph 76% 0.00 in
08:57 35.8 °F 28.7 °F 30.08 in NE 6.0 mph 11.0 mph 75% 0.00 in
09:03 36.1 °F 29.0 °F 30.08 in NE 6.0 mph 9.0 mph 75% 0.00 in
09:08 36.3 °F 28.5 °F 30.08 in NE 8.0 mph 12.0 mph 73% 0.00 in
09:13 36.6 °F 28.8 °F 30.09 in NE 11.0 mph 11.0 mph 73% 0.00 in
09:18 36.9 °F 29.1 °F 30.09 in NE 6.0 mph 10.0 mph 73% 0.00 in
09:23 37.3 °F 29.1 °F 30.09 in NNE 7.0 mph 8.0 mph 72% 0.00 in
09:28 38.0 °F 30.5 °F 30.09 in NE 3.0 mph 6.0 mph 74% 0.00 in
09:33 38.3 °F 29.7 °F 30.09 in NE 7.0 mph 9.0 mph 71% 0.00 in
09:38 38.6 °F 30.0 °F 30.09 in ENE 5.0 mph 8.0 mph 71% 0.00 in
09:43 38.8 °F 29.9 °F 30.10 in NNE 5.0 mph 8.0 mph 70% 0.00 in
09:48 39.1 °F 30.5 °F 30.10 in NE 5.0 mph 8.0 mph 71% 0.00 in
09:53 39.4 °F 30.1 °F 30.10 in NE 5.0 mph 8.0 mph 69% 0.00 in
09:58 39.5 °F 29.8 °F 30.11 in NE 5.0 mph 9.0 mph 68% 0.00 in
10:03 39.9 °F 30.9 °F 30.11 in NE 7.0 mph 7.0 mph 70% 0.00 in
10:08 40.1 °F 30.0 °F 30.11 in NNE 7.0 mph 10.0 mph 67% 0.00 in
10:13 40.4 °F 31.0 °F 30.11 in North 5.0 mph 8.0 mph 69% 0.00 in
10:19 40.8 °F 31.1 °F 30.11 in NE 6.0 mph 7.0 mph 68% 0.00 in
10:24 40.9 °F 30.4 °F 30.11 in NNE 5.0 mph 8.0 mph 66% 0.00 in
10:29 41.2 °F 30.7 °F 30.11 in NNE 7.0 mph 8.0 mph 66% 0.00 in
10:34 41.3 °F 30.4 °F 30.11 in NE 4.0 mph 8.0 mph 65% 0.00 in
10:39 41.6 °F 30.7 °F 30.11 in North 6.0 mph 8.0 mph 65% 0.00 in
10:44 41.9 °F 31.0 °F 30.11 in NNE 6.0 mph 8.0 mph 65% 0.00 in
10:49 42.4 °F 30.7 °F 30.11 in NE 5.0 mph 7.0 mph 63% 0.00 in
10:54 42.4 °F 30.7 °F 30.11 in NNE 8.0 mph 10.0 mph 63% 0.00 in
10:59 43.0 °F 31.3 °F 30.11 in NNE 4.0 mph 6.0 mph 63% 0.00 in
11:04 43.1 °F 30.6 °F 30.11 in NNE 4.0 mph 5.0 mph 61% 0.00 in
11:09 43.6 °F 31.9 °F 30.11 in North 4.0 mph 8.0 mph 63% 0.00 in
11:15 44.0 °F 31.4 °F 30.11 in NE 5.0 mph 7.0 mph 61% 0.00 in
11:20 44.5 °F 31.1 °F 30.11 in NNW 5.0 mph 9.0 mph 59% 0.00 in
11:25 44.7 °F 31.7 °F 30.11 in NE 5.0 mph 9.0 mph 60% 0.00 in
11:30 44.9 °F 31.0 °F 30.11 in NE 7.0 mph 9.0 mph 58% 0.00 in
11:35 44.9 °F 31.5 °F 30.10 in North 4.0 mph 8.0 mph 59% 0.00 in
11:40 45.1 °F 32.1 °F 30.10 in ENE 3.0 mph 8.0 mph 60% 0.00 in
11:45 45.6 °F 31.7 °F 30.10 in North 5.0 mph 11.0 mph 58% 0.00 in
11:50 45.6 °F 31.7 °F 30.10 in NNE 6.0 mph 6.0 mph 58% 0.00 in
11:55 45.8 °F 31.0 °F 30.10 in NNE 6.0 mph 9.0 mph 56% 0.00 in
12:00 46.0 °F 31.2 °F 30.10 in ENE 5.0 mph 8.0 mph 56% 0.00 in
12:05 46.3 °F 31.9 °F 30.10 in North 6.0 mph 7.0 mph 57% 0.00 in
12:10 46.7 °F 31.9 °F 30.10 in NNE 4.0 mph 8.0 mph 56% 0.00 in
12:15 47.0 °F 32.1 °F 30.10 in NNE 7.0 mph 8.0 mph 56% 0.00 in
12:20 47.2 °F 31.0 °F 30.10 in NW 1.0 mph 8.0 mph 53% 0.00 in
12:25 47.3 °F 31.5 °F 30.10 in NE 8.0 mph 8.0 mph 54% 0.00 in
12:30 48.1 °F 31.8 °F 30.10 in NNE 7.0 mph 9.0 mph 53% 0.00 in
12:35 48.1 °F 30.8 °F 30.09 in ENE 4.0 mph 6.0 mph 51% 0.00 in
12:40 48.4 °F 31.1 °F 30.09 in NNW 3.0 mph 6.0 mph 51% 0.00 in
12:45 48.9 °F 32.1 °F 30.09 in NW 2.0 mph 6.0 mph 52% 0.00 in
12:50 49.4 °F 32.0 °F 30.09 in NE 6.0 mph 8.0 mph 51% 0.00 in
12:55 49.8 °F 31.9 °F 30.09 in NE 8.0 mph 8.0 mph 50% 0.00 in
13:00 49.8 °F 31.4 °F 30.09 in ENE 4.0 mph 7.0 mph 49% 0.00 in
13:05 49.3 °F 31.0 °F 30.08 in NNE 5.0 mph 10.0 mph 49% 0.00 in
13:10 49.7 °F 30.3 °F 30.08 in NW 5.0 mph 8.0 mph 47% 0.00 in
13:15 50.3 °F 30.9 °F 30.08 in NNW 4.0 mph 9.0 mph 47% 0.00 in
13:20 50.5 °F 30.0 °F 30.08 in NE 6.0 mph 10.0 mph 45% 0.00 in
13:25 50.3 °F 30.3 °F 30.07 in ENE 2.0 mph 5.0 mph 46% 0.00 in
13:30 50.9 °F 31.4 °F 30.07 in NNW 4.0 mph 5.0 mph 47% 0.00 in
13:35 51.4 °F 30.8 °F 30.07 in North 6.0 mph 8.0 mph 45% 0.00 in
13:40 51.5 °F 30.3 °F 30.06 in North 1.0 mph 6.0 mph 44% 0.00 in
13:46 52.1 °F 32.0 °F 30.06 in ENE 10.0 mph 11.0 mph 46% 0.00 in
13:50 52.0 °F 31.3 °F 30.06 in NW 2.0 mph 8.0 mph 45% 0.00 in
13:56 52.2 °F 33.1 °F 30.06 in North 2.0 mph 6.0 mph 48% 0.00 in
14:01 52.6 °F 33.0 °F 30.06 in ENE 4.0 mph 5.0 mph 47% 0.00 in
14:06 52.9 °F 31.0 °F 30.05 in East 8.0 mph 8.0 mph 43% 0.00 in
14:11 53.1 °F 30.6 °F 30.05 in ENE 6.0 mph 8.0 mph 42% 0.00 in
14:16 53.0 °F 30.5 °F 30.05 in East 2.0 mph 8.0 mph 42% 0.00 in
14:21 53.4 °F 31.5 °F 30.05 in ENE 5.0 mph 6.0 mph 43% 0.00 in
14:26 53.4 °F 29.7 °F 30.05 in ENE 5.0 mph 7.0 mph 40% 0.00 in
14:31 53.5 °F 30.4 °F 30.05 in East 7.0 mph 9.0 mph 41% 0.00 in
14:36 53.8 °F 30.1 °F 30.05 in NE 1.0 mph 5.0 mph 40% 0.00 in
14:41 53.9 °F 30.1 °F 30.05 in ESE 2.0 mph 5.0 mph 40% 0.00 in
14:46 54.2 °F 30.4 °F 30.05 in NE 6.0 mph 7.0 mph 40% 0.00 in
14:51 54.4 °F 30.0 °F 30.05 in ENE 8.0 mph 8.0 mph 39% 0.00 in
14:56 54.6 °F 30.8 °F 30.05 in NE 3.0 mph 8.0 mph 40% 0.00 in
15:01 54.5 °F 30.7 °F 30.04 in ENE 7.0 mph 7.0 mph 40% 0.00 in
15:06 54.9 °F 29.8 °F 30.04 in NNE 4.0 mph 8.0 mph 38% 0.00 in
15:11 54.9 °F 29.1 °F 30.04 in ENE 9.0 mph 9.0 mph 37% 0.00 in
15:16 54.5 °F 28.8 °F 30.04 in East 3.0 mph 5.0 mph 37% 0.00 in
15:21 54.8 °F 31.0 °F 30.04 in NE 9.0 mph 9.0 mph 40% 0.00 in
15:26 55.1 °F 30.6 °F 30.03 in ENE 5.0 mph 6.0 mph 39% 0.00 in
15:31 55.0 °F 29.9 °F 30.03 in NNE 5.0 mph 9.0 mph 38% 0.00 in
15:36 55.0 °F 28.6 °F 30.03 in Calm   8.0 mph 36% 0.00 in
15:41 55.1 °F 27.3 °F 30.03 in NE 5.0 mph 11.0 mph 34% 0.00 in
15:46 54.9 °F 29.8 °F 30.03 in NE 5.0 mph 7.0 mph 38% 0.00 in
15:52 55.0 °F 27.9 °F 30.03 in ENE 5.0 mph 9.0 mph 35% 0.00 in
15:57 55.3 °F 26.7 °F 30.03 in NE 4.0 mph 10.0 mph 33% 0.00 in
16:02 55.2 °F 27.3 °F 30.02 in NE 4.0 mph 8.0 mph 34% 0.00 in
16:07 55.1 °F 28.6 °F 30.02 in NE 4.0 mph 7.0 mph 36% 0.00 in
16:12 55.2 °F 30.1 °F 30.02 in NE 5.0 mph 7.0 mph 38% 0.00 in
16:17 55.4 °F 28.9 °F 30.02 in NE 9.0 mph 9.0 mph 36% 0.00 in
16:22 55.5 °F 29.7 °F 30.02 in NE 2.0 mph 8.0 mph 37% 0.00 in
16:27 55.6 °F 28.4 °F 30.02 in East 7.0 mph 9.0 mph 35% 0.00 in
16:32 55.8 °F 29.9 °F 30.02 in East 4.0 mph 6.0 mph 37% 0.00 in
16:37 55.9 °F 28.0 °F 30.02 in ENE 3.0 mph 5.0 mph 34% 0.00 in
16:43 55.8 °F 29.9 °F 30.02 in ENE 4.0 mph 6.0 mph 37% 0.00 in
16:48 55.7 °F 29.2 °F 30.02 in ESE 3.0 mph 6.0 mph 36% 0.00 in
16:53 55.6 °F 29.1 °F 30.02 in ENE 6.0 mph 8.0 mph 36% 0.00 in
16:58 55.2 °F 28.0 °F 30.02 in NE 7.0 mph 8.0 mph 35% 0.00 in
17:03 55.1 °F 28.0 °F 30.02 in East 5.0 mph 7.0 mph 35% 0.00 in
17:08 55.3 °F 30.1 °F 30.02 in NE 2.0 mph 7.0 mph 38% 0.00 in
17:13 55.3 °F 29.5 °F 30.01 in ENE 6.0 mph 7.0 mph 37% 0.00 in
17:18 55.3 °F 29.5 °F 30.01 in ENE 6.0 mph 9.0 mph 37% 0.00 in
17:23 55.1 °F 28.6 °F 30.02 in ENE 3.0 mph 5.0 mph 36% 0.00 in
17:29 55.1 °F 28.6 °F 30.02 in NE 6.0 mph 7.0 mph 36% 0.00 in
17:34 55.0 °F 29.2 °F 30.02 in ENE 2.0 mph 7.0 mph 37% 0.00 in
17:39 55.1 °F 29.3 °F 30.02 in NE 3.0 mph 6.0 mph 37% 0.00 in
17:44 54.9 °F 29.1 °F 30.03 in NE 3.0 mph 4.0 mph 37% 0.00 in
17:49 54.7 °F 29.0 °F 30.03 in NE 3.0 mph 7.0 mph 37% 0.00 in
17:54 54.3 °F 28.6 °F 30.02 in NE 7.0 mph 7.0 mph 37% 0.00 in
17:59 54.0 °F 29.6 °F 30.02 in NE 3.0 mph 5.0 mph 39% 0.00 in
18:04 53.8 °F 29.4 °F 30.02 in NE 4.0 mph 7.0 mph 39% 0.00 in
18:09 53.6 °F 29.9 °F 30.02 in NE 3.0 mph 6.0 mph 40% 0.00 in
18:14 53.3 °F 29.6 °F 30.02 in NE 3.0 mph 6.0 mph 40% 0.00 in
18:19 53.2 °F 29.5 °F 30.01 in NE 3.0 mph 5.0 mph 40% 0.00 in
18:24 53.0 °F 29.3 °F 30.01 in NE 6.0 mph 8.0 mph 40% 0.00 in
18:29 52.5 °F 28.9 °F 30.01 in NE 3.0 mph 7.0 mph 40% 0.00 in
18:34 51.9 °F 29.0 °F 30.01 in NE 3.0 mph 6.0 mph 41% 0.00 in
18:39 51.4 °F 29.1 °F 30.01 in ENE 5.0 mph 5.0 mph 42% 0.00 in
18:44 51.1 °F 28.8 °F 30.01 in NE 3.0 mph 6.0 mph 42% 0.00 in
18:49 50.8 °F 29.1 °F 30.01 in NE 3.0 mph 6.0 mph 43% 0.00 in
18:54 50.6 °F 29.0 °F 30.02 in ENE 3.0 mph 5.0 mph 43% 0.00 in
18:59 50.3 °F 29.2 °F 30.02 in ENE 2.0 mph 5.0 mph 44% 0.00 in
19:04 50.0 °F 29.0 °F 30.02 in ENE 1.0 mph 5.0 mph 44% 0.00 in
19:09 49.8 °F 29.3 °F 30.02 in NE 2.0 mph 3.0 mph 45% 0.00 in
19:14 49.6 °F 29.1 °F 30.02 in ENE 3.0 mph 4.0 mph 45% 0.00 in
19:19 49.4 °F 29.0 °F 30.02 in NE 2.0 mph 4.0 mph 45% 0.00 in
19:24 49.2 °F 28.8 °F 30.02 in NE 2.0 mph 5.0 mph 45% 0.00 in
19:29 48.9 °F 29.0 °F 30.02 in NE 2.0 mph 4.0 mph 46% 0.00 in
19:34 48.7 °F 28.9 °F 30.01 in ENE 2.0 mph 4.0 mph 46% 0.00 in
19:39 48.5 °F 29.2 °F 30.02 in NE 3.0 mph 4.0 mph 47% 0.00 in
19:44 48.4 °F 29.1 °F 30.02 in NE 4.0 mph 4.0 mph 47% 0.00 in
19:49 48.0 °F 29.3 °F 30.02 in NE 4.0 mph 4.0 mph 48% 0.00 in
19:54 47.5 °F 28.8 °F 30.02 in NNE 2.0 mph 3.0 mph 48% 0.00 in
19:59 46.9 °F 28.8 °F 30.02 in NNE 1.0 mph 3.0 mph 49% 0.00 in
20:04 46.7 °F 29.1 °F 30.02 in NNE 2.0 mph 3.0 mph 50% 0.00 in
20:10 46.6 °F 29.0 °F 30.02 in NNE 2.0 mph 4.0 mph 50% 0.00 in
20:15 46.4 °F 29.3 °F 30.01 in NNE 2.0 mph 4.0 mph 51% 0.00 in
20:20 46.1 °F 29.0 °F 30.02 in NNE 2.0 mph 4.0 mph 51% 0.00 in
20:25 45.9 °F 29.3 °F 30.02 in NE 3.0 mph 3.0 mph 52% 0.00 in
20:30 45.7 °F 29.1 °F 30.02 in NNE 2.0 mph 3.0 mph 52% 0.00 in
20:35 45.7 °F 29.1 °F 30.02 in NNE 2.0 mph 3.0 mph 52% 0.00 in
20:40 45.6 °F 29.5 °F 30.02 in NE 2.0 mph 5.0 mph 53% 0.00 in
20:45 45.3 °F 29.2 °F 30.01 in NNE 4.0 mph 5.0 mph 53% 0.00 in
20:50 45.2 °F 29.1 °F 30.01 in NE 2.0 mph 5.0 mph 53% 0.00 in
20:55 45.3 °F 29.2 °F 30.01 in NE 3.0 mph 4.0 mph 53% 0.00 in
21:00 45.4 °F 29.3 °F 30.01 in NNE 3.0 mph 5.0 mph 53% 0.00 in
21:05 45.3 °F 29.2 °F 30.01 in NE 3.0 mph 7.0 mph 53% 0.00 in
21:10 45.2 °F 29.1 °F 30.01 in NNE 3.0 mph 5.0 mph 53% 0.00 in
21:15 45.0 °F 28.9 °F 30.01 in NE 4.0 mph 5.0 mph 53% 0.00 in
21:20 45.0 °F 28.9 °F 30.01 in NNE 4.0 mph 5.0 mph 53% 0.00 in
21:25 44.9 °F 28.8 °F 30.01 in NNE 4.0 mph 6.0 mph 53% 0.00 in
21:30 44.7 °F 28.6 °F 30.01 in NE 3.0 mph 5.0 mph 53% 0.00 in
21:35 44.5 °F 28.5 °F 30.01 in NE 4.0 mph 5.0 mph 53% 0.00 in
21:40 44.6 °F 28.5 °F 30.01 in NE 4.0 mph 4.0 mph 53% 0.00 in
21:45 44.5 °F 28.5 °F 30.01 in NNE 3.0 mph 5.0 mph 53% 0.00 in
21:50 44.4 °F 28.4 °F 30.01 in NE 4.0 mph 5.0 mph 53% 0.00 in
21:55 44.2 °F 28.6 °F 30.01 in NE 4.0 mph 5.0 mph 54% 0.00 in
22:00 44.0 °F 28.4 °F 30.01 in NE 3.0 mph 4.0 mph 54% 0.00 in
22:05 44.0 °F 28.4 °F 30.01 in NE 2.0 mph 4.0 mph 54% 0.00 in
22:11 44.0 °F 28.4 °F 30.01 in ENE 4.0 mph 5.0 mph 54% 0.00 in
22:16 44.1 °F 28.5 °F 30.01 in NE 3.0 mph 6.0 mph 54% 0.00 in
22:21 44.1 °F 28.5 °F 30.01 in ENE 3.0 mph 6.0 mph 54% 0.00 in
22:26 43.9 °F 28.4 °F 30.01 in NE 4.0 mph 4.0 mph 54% 0.00 in
22:31 43.7 °F 28.6 °F 30.01 in NE 3.0 mph 6.0 mph 55% 0.00 in
22:36 43.6 °F 28.5 °F 30.01 in NE 4.0 mph 7.0 mph 55% 0.00 in
22:41 43.4 °F 28.3 °F 30.00 in NE 6.0 mph 6.0 mph 55% 0.00 in
22:46 43.3 °F 28.2 °F 30.00 in NE 4.0 mph 6.0 mph 55% 0.00 in
22:51 43.2 °F 28.1 °F 30.00 in NE 6.0 mph 6.0 mph 55% 0.00 in
22:56 43.1 °F 28.5 °F 29.99 in NE 3.0 mph 7.0 mph 56% 0.00 in
23:01 43.3 °F 28.2 °F 29.99 in NE 6.0 mph 7.0 mph 55% 0.00 in
23:06 43.3 °F 28.2 °F 29.99 in ENE 4.0 mph 7.0 mph 55% 0.00 in
23:11 43.3 °F 28.2 °F 29.99 in NE 4.0 mph 6.0 mph 55% 0.00 in
23:17 42.9 °F 28.3 °F 29.98 in NNE 5.0 mph 6.0 mph 56% 0.00 in
23:22 42.8 °F 28.2 °F 29.98 in NE 3.0 mph 6.0 mph 56% 0.00 in
23:27 42.7 °F 28.5 °F 29.98 in NE 5.0 mph 6.0 mph 57% 0.00 in
23:32 42.7 °F 28.1 °F 29.97 in NE 6.0 mph 7.0 mph 56% 0.00 in
23:37 42.6 °F 28.0 °F 29.97 in NE 3.0 mph 6.0 mph 56% 0.00 in
23:42 42.5 °F 27.9 °F 29.97 in NE 4.0 mph 6.0 mph 56% 0.00 in
23:47 42.4 °F 28.3 °F 29.96 in NE 4.0 mph 6.0 mph 57% 0.00 in
23:52 42.3 °F 28.2 °F 29.97 in NNE 4.0 mph 7.0 mph 57% 0.00 in
23:57 42.3 °F 28.2 °F 29.97 in NE 4.0 mph 7.0 mph 57% 0.00 in
Compliments of Weather Underground